Regional Weather Roundup
Issued by NWS Jackson, KY

Home | Current Version | Previous Version | Graphics & Text | Print | Product List | Glossary On
Versions: 1 2 3 4 5 6 7 8 9 10 11 12 13 14 15 16 17 18 19 20 21 22 23 24 25 26 27
000
ASUS43 KJKL 231410
RWRJKL

EAST KENTUCKY HOURLY WEATHER ROUNDUP
NATIONAL WEATHER SERVICE JACKSON KY
1000 AM EDT THU MAR 23 2017

NOTE: "FAIR" INDICATES FEW OR NO CLOUDS BELOW 12,000 FEET WITH
NO SIGNIFICANT WEATHER AND/OR OBSTRUCTIONS TO VISIBILITY.

* THESE REPORTS ARE NOT UNDER NWS QUALITY CONTROL AND MAY NOT
  REPORT WEATHER SUCH AS PRECIPITATION AND FOG.

KYZ079-080-083-085-087-088-110-112-115-119-120-231500
...EASTERN KENTUCKY...

CITY           SKY/WX    TMP DP  RH WIND       PRES   REMARKS
JACKSON        SUNNY     38  17  42 E5        30.40S WCI  34
LONDON         SUNNY     41  17  38 E6        30.39S
SOMERSET*      SUNNY     41  19  42 E3        30.42R
MONTICELLO*    SUNNY     43  22  43 W8        30.40R
WILLIAMSBURG*  SUNNY     43  23  45 SE6       30.39R
MIDDLESBORO*   SUNNY     47  21  36 CALM      30.41S
HARLAN APT*    MOSUNNY   45  21  39 N5        30.41R
PIKE CO APT*     N/A     37  20  50 SE3       30.40S
BIG SANDY APT* CLOUDY    39  21  47 E3        30.43R
MOREHEAD APT*  CLOUDY    37  12  35 VRB7      30.44F WCI  32
ASHLAND*       CLOUDY    36  18  48 E5        30.46F WCI  32
$$

KYZ035-036-041-042-044-050-067-078-099-231500
...CENTRAL KENTUCKY...

CITY           SKY/WX    TMP DP  RH WIND       PRES   REMARKS
MT STERLING*   SUNNY     36  18  48 E8        30.43S WCI  29
FLEMING/MASON* SUNNY     34  15  46 E9        30.44F WCI  27
DANVILLE*      MOSUNNY   37  21  52 SE5       30.41R WCI  34
LEXINGTON      PTSUNNY   39  15  37 E9        30.41R WCI  33
FRANKFORT      MOSUNNY   38  16  40 E12       30.41R WCI  30
LOUISVILLE     PTSUNNY   39  15  37 E10       30.42F WCI  32
LEBANON*         N/A     37  19  48 E5        30.40S WCI  34
GLASGOW*       MOSUNNY   42  24  48 E8        30.37S
BOWLING GREEN  CLOUDY    42  24  49 E6        30.37R
$$

KYZ091>093-OHZ055-061-077-WVZ005-015-034-035-042-231500
...SOUTHERN OHIO/WEST VIRGINIA...

CITY           SKY/WX    TMP DP  RH WIND       PRES   REMARKS
COVINGTON      CLOUDY    35  15  44 E13       30.43F WCI  26
COLUMBUS       CLOUDY    31  10  41 E10       30.51S WCI  22
DAYTON         CLOUDY    31  15  52 E12       30.47S WCI  22
WILMINGTON     CLOUDY    30  18  60 E12       30.45F WCI  20
HUNTINGTON     CLOUDY    35  15  44 E6        30.45F WCI  30
CHARLESTON     MOSUNNY   36  18  48 NE5       30.46S WCI  32
PINEVILLE*     SUNNY     42  10  27 MISG      30.48S
BECKLEY        SUNNY     36  12  37 SE12G21   30.42R WCI  28
BLUEFIELD      SUNNY     35   9  33 SE13G21   30.43R WCI  26
LOGAN CO APT*    N/A     41  18  38 CALM      30.41S
$$

VAZ002-007-008-TNZ017-027-036-066-071-231500
...SOUTHWEST VIRGINIA/EAST TENNESSEE...

CITY           SKY/WX    TMP DP  RH WIND       PRES   REMARKS
WISE*          MOSUNNY   43  16  33 CALM      30.40S
JONESVILLE*      N/A     48  18  29 E9        30.44S
ABINGDON*      SUNNY     43  15  32 E15       30.44R
BRISTOL        MOSUNNY   45  20  36 E6        30.44R
MORRISTOWN*    SUNNY     48  23  37 VRB6      30.39R
SEVIERVILLE*   SUNNY     43  27  52 CALM      30.40R
KNOXVILLE      MOSUNNY   49  20  31 NE6       30.39S
LAFOLLETTE*    SUNNY     46  21  36 CALM      30.43S
OAK RIDGE      SUNNY     49  20  31 VRB3      30.42R
CROSSVILLE     SUNNY     49  23  36 SE10G17   30.36R
NASHVILLE      MOSUNNY   47  28  47 E6        30.34F
$$

...KEY TO REMARKS...
VSB - VISIBILITY IN MILES
WCI - WIND CHILL INDEX
HX  - HEAT INDEX

$$




USA.gov is the U.S. government's official web portal to all federal, state and local government web resources and services.